This is the latest recevied weather packets stored in our database for station/object SR9SMR. If no packets are shown the sender has not sent any weather packets the latest 1 day(s).
| Time | Temp. | Humidity | Pressure | Rain* | Wind** | Luminosity | Snow |
|---|---|---|---|---|---|---|---|
| 1778078756 | 16.11° C | 100% | 894.5 hPa | - | - | - | - |
| 1778078515 | 16.11° C | 100% | 894.3 hPa | - | - | - | - |
| 1778078394 | 16.67° C | 100% | 894.5 hPa | - | - | - | - |
| 1778077670 | 16.67° C | 100% | 894.3 hPa | - | - | - | - |
| 1778077549 | 16.67° C | 100% | 894.3 hPa | - | - | - | - |
| 1778077427 | 16.67° C | 100% | 894.8 hPa | - | - | - | - |
| 1778077307 | 16.67° C | 100% | 894.8 hPa | - | - | - | - |
| 1778076822 | 16.67° C | 100% | 894.4 hPa | - | - | - | - |
| 1778076763 | 16.67° C | 100% | 894.6 hPa | - | - | - | - |
| 1778076702 | 16.67° C | 100% | 894.6 hPa | - | - | - | - |
| 1778076581 | 16.67° C | 100% | 895.5 hPa | - | - | - | - |
| 1778076154 | 16.67° C | 100% | 893.8 hPa | - | - | - | - |
| 1778075972 | 16.67° C | 100% | 894.2 hPa | - | - | - | - |
| 1778075851 | 16.67° C | 100% | 894.7 hPa | - | - | - | - |
| 1778075548 | 17.22° C | 100% | 893.5 hPa | - | - | - | - |
| 1778074939 | 17.78° C | 100% | 894.7 hPa | - | - | - | - |
| 1778074878 | 18.33° C | 100% | 895.1 hPa | - | - | - | - |
| 1778074394 | 17.22° C | 100% | 894.4 hPa | - | - | - | - |
| 1778074334 | 16.67° C | 100% | 894.4 hPa | - | - | - | - |
| 1778074273 | 17.78° C | 100% | 894.5 hPa | - | - | - | - |
| 1778074031 | 17.22° C | 100% | 894.2 hPa | - | - | - | - |
| 1778073789 | 17.22° C | 100% | 894.1 hPa | - | - | - | - |
| 1778073066 | 17.78° C | 100% | 895.1 hPa | - | - | - | - |
| 1778072518 | 17.22° C | 100% | 894.5 hPa | - | - | - | - |
| 1778071903 | 17.22° C | 100% | 894.4 hPa | - | - | - | - |
* Rain since midnight (hover to see other rain measurements)
** Current wind speed in m/s (hover to see current wind gust speed)